Location: Unspecified
(51.5147°N, 7.4673°E)
Time: 04:00:28
(UTC+01:00)

Vanguard 1 Rocket - Pass Details

Date: 16 February 2026
Orbit: 653 x 4214 km, 34.3° (Epoch: 5 March)

Event Time Altitude Azimuth Distance (km) Brightness Sun altitude
Rises 20:06:56 0° 273° (W) 6,700 13.3 -22.3°
Reaches altitude 10° 20:11:52 10° 263° (W) 6,150 12.6 -23.1°
Maximum altitude 20:27:46 28° 214° (SW) 5,736 11.6 -25.5°
Drops below altitude 10° 20:46:56 10° 167° (SSE) 7,335 11.7 -28.3°
Sets 20:53:50 0° 157° (SSE) 8,143 11.9 -29.4°
